| time (UTC) | temp F | wind direction | speed MPH | gust MPH | rain 1hr in | rain 24hr in | rain mn in | humidity % | barometer mb |
| 20260502163952 | 51 | 350 | 4.0 | 9.0 | 0.00 | 0.00 | 0.00 | 30 | 1018.6 |
| 20260502163447 | 51 | 273 | 4.0 | 9.0 | 0.00 | 0.00 | 0.00 | 29 | 1018.5 |
| 20260502162940 | 52 | 331 | 3.0 | 9.0 | 0.00 | 0.00 | 0.00 | 28 | 1018.7 |
| 20260502161928 | 51 | 304 | 4.0 | 12.0 | 0.00 | 0.00 | 0.00 | 32 | 1018.7 |
| 20260502161423 | 50 | 0 | 5.0 | 12.0 | 0.00 | 0.00 | 0.00 | 29 | 1018.7 |
| 20260502160411 | 50 | 317 | 6.0 | 11.0 | 0.00 | 0.00 | 0.00 | 29 | 1018.7 |
| 20260502152323 | 49 | 320 | 3.0 | 7.0 | 0.00 | 0.00 | 0.00 | 31 | 1018.7 |
| 20260502151818 | 48 | 22 | 3.0 | 8.0 | 0.00 | 0.00 | 0.00 | 31 | 1018.8 |
| 20260502151318 | 48 | 0 | 3.0 | 8.0 | 0.00 | 0.00 | 0.00 | 32 | 1018.7 |
| 20260502150819 | 49 | 342 | 3.0 | 9.0 | 0.00 | 0.00 | 0.00 | 33 | 1018.8 |
| 20260502130205 | 41 | 64 | 3.0 | 5.0 | 0.00 | 0.00 | 0.00 | 49 | 1018.3 |
| 20260502123634 | 39 | 0 | 2.0 | 5.0 | 0.00 | 0.00 | 0.00 | 58 | 1018.2 |
| 20260502123129 | 39 | 42 | 2.0 | 5.0 | 0.00 | 0.00 | 0.00 | 59 | 1018.2 |
| 20260502122622 | 39 | 88 | 2.0 | 4.0 | 0.00 | 0.00 | 0.00 | 61 | 1018.0 |
| 20260502121610 | 38 | 81 | 2.0 | 4.0 | 0.00 | 0.00 | 0.00 | 62 | 1018.0 |
| 20260502121105 | 38 | 81 | 1.0 | 3.0 | 0.00 | 0.00 | 0.00 | 62 | 1018.0 |
| 20260502120558 | 38 | 81 | 0.0 | 2.0 | 0.00 | 0.00 | 0.00 | 63 | 1017.9 |
| 20260502115547 | 37 | 81 | 0.0 | 1.0 | 0.00 | 0.00 | 0.00 | 63 | 1017.9 |
| 20260502114535 | 36 | 81 | 0.0 | 2.0 | 0.00 | 0.00 | 0.00 | 63 | 1017.8 |
| 20260502111515 | 36 | 81 | 0.0 | 0.0 | 0.00 | 0.00 | 0.00 | 61 | 1017.8 |
| 20260502111013 | 36 | 81 | 0.0 | 0.0 | 0.00 | 0.00 | 0.00 | 61 | 1017.8 |
| 20260502110514 | 36 | 81 | 0.0 | 0.0 | 0.00 | 0.00 | 0.00 | 61 | 1017.8 |
| 20260502105517 | 36 | 81 | 0.0 | 0.0 | 0.00 | 0.00 | 0.00 | 61 | 1017.7 |
| 20260502104513 | 37 | 81 | 0.0 | 0.0 | 0.00 | 0.00 | 0.00 | 61 | 1017.7 |
| 20260502103013 | 38 | 81 | 0.0 | 0.0 | 0.00 | 0.00 | 0.00 | 60 | 1017.7 |
| 20260502102010 | 38 | 81 | 0.0 | 0.0 | 0.00 | 0.00 | 0.00 | 60 | 1017.7 |
| 20260502101511 | 38 | 81 | 0.0 | 0.0 | 0.00 | 0.00 | 0.00 | 60 | 1017.7 |
| 20260502101009 | 38 | 81 | 0.0 | 0.0 | 0.00 | 0.00 | 0.00 | 60 | 1017.6 |
| 20260502100510 | 38 | 81 | 0.0 | 0.0 | 0.00 | 0.00 | 0.00 | 60 | 1017.6 |
| 20260502091505 | 40 | 81 | 0.0 | 0.0 | 0.00 | 0.00 | 0.00 | 59 | 1017.5 |
| 20260502090504 | 40 | 81 | 0.0 | 0.0 | 0.00 | 0.00 | 0.00 | 59 | 1017.4 |
| 20260502071451 | 40 | 75 | 1.0 | 3.0 | 0.00 | 0.00 | 0.00 | 57 | 1017.2 |
| 20260502070952 | 40 | 60 | 1.0 | 3.0 | 0.00 | 0.00 | 0.00 | 57 | 1017.2 |
| 20260502070451 | 40 | 61 | 2.0 | 4.0 | 0.00 | 0.00 | 0.00 | 57 | 1017.1 |
| 20260502065953 | 40 | 59 | 2.0 | 4.0 | 0.00 | 0.00 | 0.00 | 57 | 1017.1 |
| 20260502064451 | 40 | 74 | 3.0 | 5.0 | 0.00 | 0.00 | 0.00 | 57 | 1017.1 |
| 20260502063953 | 40 | 73 | 2.0 | 5.0 | 0.00 | 0.00 | 0.00 | 57 | 1017.2 |
| 20260502062449 | 40 | 95 | 1.0 | 3.0 | 0.00 | 0.00 | 0.00 | 57 | 1017.4 |
| 20260502061947 | 40 | 84 | 1.0 | 5.0 | 0.00 | 0.00 | 0.00 | 57 | 1017.5 |
| 20260502061447 | 40 | 81 | 3.0 | 7.0 | 0.00 | 0.00 | 0.00 | 57 | 1017.5 |
| 20260502060948 | 40 | 66 | 3.0 | 7.0 | 0.00 | 0.00 | 0.00 | 57 | 1017.6 |
| 20260502060448 | 40 | 58 | 3.0 | 6.0 | 0.00 | 0.00 | 0.00 | 57 | 1017.5 |
| 20260502055949 | 40 | 81 | 2.0 | 5.0 | 0.00 | 0.00 | 0.00 | 57 | 1017.4 |
| 20260502055449 | 40 | 69 | 2.0 | 4.0 | 0.00 | 0.00 | 0.00 | 58 | 1017.5 |
| 20260502054948 | 40 | 86 | 3.0 | 6.0 | 0.00 | 0.00 | 0.00 | 58 | 1017.5 |
| 20260502053948 | 40 | 84 | 3.0 | 7.0 | 0.00 | 0.00 | 0.00 | 59 | 1017.6 |
| 20260502053447 | 40 | 58 | 3.0 | 6.0 | 0.00 | 0.00 | 0.00 | 59 | 1017.7 |
| 20260502052449 | 40 | 42 | 2.0 | 4.0 | 0.00 | 0.01 | 0.00 | 60 | 1017.7 |
| 20260502051951 | 40 | 69 | 2.0 | 4.0 | 0.00 | 0.01 | 0.00 | 60 | 1017.7 |
| 20260502051451 | 40 | 34 | 2.0 | 7.0 | 0.00 | 0.01 | 0.00 | 60 | 1017.7 |
| 20260502050951 | 40 | 68 | 2.0 | 7.0 | 0.00 | 0.02 | 0.00 | 60 | 1017.8 |
| 20260502050442 | 40 | 84 | 2.0 | 6.0 | 0.00 | 0.02 | 0.00 | 60 | 1017.7 |
| 20260502045938 | 40 | 30 | 2.0 | 6.0 | 0.00 | 0.02 | 0.02 | 60 | 1017.7 |
| 20260502044925 | 40 | 92 | 2.0 | 7.0 | 0.00 | 0.03 | 0.02 | 59 | 1017.6 |
| 20260502044419 | 40 | 79 | 2.0 | 4.0 | 0.00 | 0.03 | 0.02 | 59 | 1017.7 |
| 20260502043913 | 40 | 72 | 2.0 | 5.0 | 0.00 | 0.03 | 0.02 | 59 | 1017.5 |
| 20260502043405 | 40 | 42 | 2.0 | 7.0 | 0.00 | 0.03 | 0.02 | 59 | 1017.6 |
| 20260502042900 | 40 | 87 | 2.0 | 8.0 | 0.00 | 0.03 | 0.02 | 59 | 1017.6 |
| 20260502041904 | 40 | 74 | 2.0 | 6.0 | 0.00 | 0.03 | 0.02 | 59 | 1017.5 |
| 20260502041401 | 40 | 88 | 3.0 | 7.0 | 0.00 | 0.03 | 0.02 | 59 | 1017.6 |
| 20260502040858 | 41 | 80 | 3.0 | 8.0 | 0.00 | 0.03 | 0.02 | 60 | 1017.5 |
| 20260502035859 | 41 | 80 | 3.0 | 9.0 | 0.00 | 0.03 | 0.02 | 60 | 1017.5 |
| 20260502035358 | 41 | 86 | 3.0 | 7.0 | 0.00 | 0.03 | 0.02 | 59 | 1017.4 |
| 20260502034859 | 41 | 82 | 3.0 | 7.0 | 0.00 | 0.03 | 0.02 | 59 | 1017.4 |
| 20260502033858 | 42 | 88 | 2.0 | 7.0 | 0.00 | 0.03 | 0.02 | 59 | 1017.5 |
| 20260502033359 | 42 | 63 | 2.0 | 5.0 | 0.00 | 0.03 | 0.02 | 58 | 1017.4 |
| 20260502032858 | 42 | 82 | 2.0 | 7.0 | 0.00 | 0.03 | 0.02 | 58 | 1017.4 |
| 20260502032400 | 42 | 71 | 3.0 | 8.0 | 0.00 | 0.03 | 0.02 | 58 | 1017.4 |
| 20260502031901 | 42 | 98 | 3.0 | 8.0 | 0.00 | 0.03 | 0.02 | 58 | 1017.4 |
| 20260502030848 | 43 | 60 | 3.0 | 8.0 | 0.00 | 0.03 | 0.02 | 58 | 1017.3 |
| 20260502030342 | 43 | 88 | 2.0 | 5.0 | 0.00 | 0.03 | 0.02 | 58 | 1017.3 |
| 20260502025835 | 43 | 94 | 3.0 | 6.0 | 0.00 | 0.03 | 0.02 | 58 | 1017.1 |
| 20260502025329 | 43 | 80 | 2.0 | 6.0 | 0.00 | 0.03 | 0.02 | 58 | 1017.0 |
| 20260502024823 | 43 | 95 | 2.0 | 4.0 | 0.00 | 0.03 | 0.02 | 58 | 1017.0 |
| 20260502024317 | 44 | 63 | 2.0 | 5.0 | 0.00 | 0.03 | 0.02 | 58 | 1017.0 |
| 20260502023812 | 44 | 75 | 2.0 | 6.0 | 0.00 | 0.03 | 0.02 | 58 | 1016.8 |
| 20260502023306 | 44 | 70 | 2.0 | 5.0 | 0.00 | 0.03 | 0.02 | 58 | 1016.8 |
| 20260502022759 | 44 | 74 | 3.0 | 5.0 | 0.00 | 0.03 | 0.02 | 58 | 1016.7 |
| 20260502022253 | 44 | 57 | 3.0 | 5.0 | 0.00 | 0.03 | 0.02 | 58 | 1016.6 |
| 20260502020735 | 44 | 55 | 2.0 | 4.0 | 0.00 | 0.03 | 0.02 | 57 | 1016.3 |
| 20260502020229 | 44 | 72 | 1.0 | 4.0 | 0.00 | 0.03 | 0.02 | 56 | 1016.2 |
| 20260502015724 | 45 | 89 | 1.0 | 4.0 | 0.00 | 0.03 | 0.02 | 56 | 1016.2 |
| 20260502015218 | 45 | 61 | 1.0 | 3.0 | 0.00 | 0.03 | 0.02 | 56 | 1016.2 |
| 20260502014711 | 45 | 61 | 1.0 | 3.0 | 0.00 | 0.03 | 0.02 | 55 | 1016.1 |
| 20260502014210 | 46 | 61 | 1.0 | 3.0 | 0.00 | 0.03 | 0.02 | 54 | 1015.9 |
| 20260502013711 | 46 | 60 | 1.0 | 4.0 | 0.00 | 0.03 | 0.02 | 54 | 1015.8 |
| 20260502012710 | 46 | 60 | 2.0 | 4.0 | 0.00 | 0.04 | 0.02 | 53 | 1015.6 |
| 20260502012208 | 47 | 45 | 2.0 | 5.0 | 0.00 | 0.04 | 0.02 | 53 | 1015.5 |
| 20260502011708 | 47 | 56 | 3.0 | 7.0 | 0.00 | 0.04 | 0.02 | 53 | 1015.4 |
| 20260502010709 | 47 | 44 | 3.0 | 7.0 | 0.00 | 0.04 | 0.02 | 52 | 1015.2 |
| 20260502010207 | 48 | 86 | 2.0 | 5.0 | 0.00 | 0.04 | 0.02 | 51 | 1015.2 |
| 20260502005707 | 48 | 88 | 2.0 | 7.0 | 0.00 | 0.04 | 0.02 | 50 | 1015.2 |
| 20260502005206 | 48 | 71 | 2.0 | 7.0 | 0.00 | 0.04 | 0.02 | 50 | 1015.2 |
| 20260502004705 | 49 | 65 | 2.0 | 6.0 | 0.00 | 0.04 | 0.02 | 49 | 1015.2 |
| 20260502004205 | 49 | 23 | 2.0 | 6.0 | 0.00 | 0.04 | 0.02 | 47 | 1015.1 |
| 20260502003705 | 49 | 57 | 3.0 | 9.0 | 0.00 | 0.04 | 0.02 | 46 | 1015.0 |
| 20260502003159 | 50 | 31 | 3.0 | 9.0 | 0.00 | 0.04 | 0.02 | 45 | 1015.0 |
| 20260502002659 | 50 | 355 | 3.0 | 7.0 | 0.00 | 0.04 | 0.02 | 44 | 1014.8 |
| 20260502002159 | 51 | 48 | 3.0 | 8.0 | 0.00 | 0.04 | 0.02 | 43 | 1014.7 |
| 20260502001659 | 51 | 49 | 3.0 | 9.0 | 0.00 | 0.04 | 0.02 | 42 | 1014.8 |
| 20260502001200 | 51 | 61 | 4.0 | 9.0 | 0.00 | 0.04 | 0.02 | 41 | 1014.9 |
| 20260502000659 | 51 | 49 | 3.0 | 9.0 | 0.00 | 0.04 | 0.02 | 40 | 1014.9 |
| 20260502000203 | 52 | 29 | 2.0 | 9.0 | 0.00 | 0.04 | 0.02 | 40 | 1014.9 |
| 20260501235700 | 52 | 51 | 3.0 | 6.0 | 0.00 | 0.04 | 0.02 | 39 | 1014.8 |
| 20260501235158 | 52 | 19 | 3.0 | 9.0 | 0.00 | 0.04 | 0.02 | 39 | 1014.7 |
| 20260501234655 | 53 | 335 | 3.0 | 9.0 | 0.00 | 0.04 | 0.02 | 39 | 1014.8 |
| 20260501234154 | 53 | 317 | 3.0 | 9.0 | 0.00 | 0.04 | 0.02 | 37 | 1014.8 |
| 20260501233652 | 53 | 341 | 3.0 | 5.0 | 0.00 | 0.04 | 0.02 | 37 | 1014.8 |
| 20260501232653 | 53 | 336 | 3.0 | 8.0 | 0.00 | 0.04 | 0.02 | 38 | 1014.7 |
| 20260501232154 | 53 | 315 | 3.0 | 8.0 | 0.00 | 0.04 | 0.02 | 38 | 1014.8 |
| 20260501231653 | 53 | 343 | 4.0 | 9.0 | 0.00 | 0.04 | 0.02 | 39 | 1014.8 |
| 20260501231152 | 52 | 337 | 5.0 | 11.0 | 0.00 | 0.04 | 0.02 | 39 | 1014.9 |
| 20260501230653 | 52 | 303 | 5.0 | 12.0 | 0.00 | 0.04 | 0.02 | 39 | 1014.9 |
| 20260501230148 | 53 | 9 | 4.0 | 12.0 | 0.00 | 0.04 | 0.02 | 37 | 1014.9 |
| 20260501225648 | 53 | 284 | 4.0 | 9.0 | 0.00 | 0.04 | 0.02 | 37 | 1014.9 |
| 20260501225152 | 53 | 338 | 4.0 | 12.0 | 0.00 | 0.04 | 0.02 | 38 | 1015.0 |
| 20260501224649 | 53 | 329 | 4.0 | 12.0 | 0.00 | 0.04 | 0.02 | 37 | 1015.0 |
| 20260501223648 | 53 | 312 | 4.0 | 9.0 | 0.00 | 0.04 | 0.02 | 37 | 1015.0 |
| 20260501222644 | 53 | 298 | 5.0 | 10.0 | 0.00 | 0.04 | 0.02 | 36 | 1015.0 |
| 20260501222145 | 53 | 329 | 4.0 | 11.0 | 0.00 | 0.04 | 0.02 | 38 | 1015.0 |
| 20260501221644 | 53 | 321 | 3.0 | 11.0 | 0.00 | 0.04 | 0.02 | 37 | 1014.9 |
| 20260501221144 | 53 | 284 | 3.0 | 9.0 | 0.00 | 0.04 | 0.02 | 38 | 1015.0 |
| 20260501220642 | 53 | 11 | 3.0 | 9.0 | 0.00 | 0.04 | 0.02 | 36 | 1014.9 |
| 20260501220143 | 53 | 338 | 3.0 | 9.0 | 0.00 | 0.04 | 0.02 | 38 | 1015.0 |
| 20260501215643 | 54 | 302 | 3.0 | 9.0 | 0.00 | 0.04 | 0.02 | 37 | 1014.9 |
| 20260501215143 | 54 | 351 | 4.0 | 12.0 | 0.00 | 0.04 | 0.02 | 35 | 1014.9 |
| 20260501214637 | 54 | 355 | 4.0 | 12.0 | 0.00 | 0.04 | 0.02 | 37 | 1014.9 |
| 20260501213625 | 55 | 39 | 4.0 | 9.0 | 0.00 | 0.04 | 0.02 | 35 | 1014.8 |
| 20260501213119 | 53 | 342 | 4.0 | 10.0 | 0.00 | 0.04 | 0.02 | 37 | 1014.8 |
| 20260501212612 | 53 | 355 | 3.0 | 10.0 | 0.00 | 0.04 | 0.02 | 38 | 1014.8 |
| 20260501211600 | 53 | 19 | 4.0 | 9.0 | 0.00 | 0.04 | 0.02 | 38 | 1014.8 |
| 20260501211054 | 53 | 327 | 4.0 | 10.0 | 0.00 | 0.04 | 0.02 | 38 | 1014.8 |
| 20260501210548 | 53 | 296 | 4.0 | 10.0 | 0.00 | 0.04 | 0.02 | 38 | 1014.8 |
| 20260501210043 | 54 | 355 | 4.0 | 9.0 | 0.00 | 0.04 | 0.02 | 34 | 1014.7 |
| 20260501205537 | 54 | 342 | 4.0 | 9.0 | 0.00 | 0.04 | 0.02 | 33 | 1014.7 |
| 20260501205031 | 55 | 5 | 4.0 | 9.0 | 0.00 | 0.04 | 0.02 | 35 | 1014.8 |
| 20260501204525 | 54 | 310 | 4.0 | 9.0 | 0.00 | 0.04 | 0.02 | 35 | 1014.8 |
| 20260501204019 | 55 | 294 | 4.0 | 9.0 | 0.00 | 0.04 | 0.02 | 37 | 1014.9 |
| 20260501203513 | 54 | 299 | 4.0 | 11.0 | 0.00 | 0.04 | 0.02 | 35 | 1014.9 |
| 20260501202501 | 54 | 306 | 5.0 | 10.0 | 0.00 | 0.04 | 0.02 | 36 | 1014.8 |
| 20260501201955 | 54 | 342 | 4.0 | 10.0 | 0.00 | 0.04 | 0.02 | 32 | 1015.0 |
| 20260501201448 | 56 | 313 | 4.0 | 9.0 | 0.00 | 0.04 | 0.02 | 31 | 1015.0 |
| 20260501200942 | 56 | 355 | 4.0 | 10.0 | 0.00 | 0.04 | 0.02 | 36 | 1015.0 |
| 20260501200437 | 55 | 24 | 5.0 | 10.0 | 0.00 | 0.04 | 0.02 | 34 | 1015.1 |
| 20260501195931 | 54 | 338 | 4.0 | 10.0 | 0.00 | 0.04 | 0.02 | 35 | 1015.1 |
| 20260501195425 | 55 | 355 | 5.0 | 10.0 | 0.00 | 0.04 | 0.02 | 36 | 1015.2 |
| 20260501194919 | 55 | 317 | 5.0 | 13.0 | 0.00 | 0.04 | 0.02 | 36 | 1015.1 |
| 20260501194412 | 54 | 263 | 5.0 | 13.0 | 0.00 | 0.04 | 0.02 | 34 | 1015.2 |
| 20260501193907 | 53 | 272 | 5.0 | 10.0 | 0.00 | 0.04 | 0.02 | 34 | 1015.1 |
| 20260501193401 | 55 | 341 | 4.0 | 9.0 | 0.00 | 0.04 | 0.02 | 34 | 1015.1 |
| 20260501192854 | 55 | 344 | 4.0 | 10.0 | 0.00 | 0.04 | 0.02 | 39 | 1015.1 |
| 20260501191337 | 53 | 318 | 5.0 | 12.0 | 0.00 | 0.04 | 0.02 | 40 | 1015.1 |
| 20260501190325 | 52 | 334 | 6.0 | 12.0 | 0.00 | 0.04 | 0.02 | 38 | 1015.1 |
| 20260501185819 | 52 | 42 | 6.0 | 12.0 | 0.00 | 0.04 | 0.02 | 38 | 1015.1 |
| 20260501185312 | 53 | 281 | 5.0 | 12.0 | 0.00 | 0.04 | 0.02 | 37 | 1015.1 |
| 20260501184807 | 53 | 319 | 5.0 | 10.0 | 0.00 | 0.04 | 0.02 | 40 | 1015.0 |
| 20260501184301 | 53 | 340 | 5.0 | 11.0 | 0.00 | 0.04 | 0.02 | 40 | 1015.0 |
| 20260501183755 | 52 | 276 | 5.0 | 11.0 | 0.00 | 0.04 | 0.02 | 39 | 1015.0 |
| 20260501182743 | 53 | 305 | 4.0 | 10.0 | 0.00 | 0.04 | 0.02 | 42 | 1015.0 |
| 20260501181225 | 54 | 38 | 4.0 | 13.0 | 0.00 | 0.04 | 0.02 | 46 | 1014.9 |
| 20260501180719 | 52 | 296 | 5.0 | 13.0 | 0.00 | 0.04 | 0.02 | 44 | 1015.0 |
| 20260501180212 | 51 | 0 | 5.0 | 13.0 | 0.00 | 0.04 | 0.02 | 42 | 1015.0 |
| 20260501175707 | 52 | 0 | 5.0 | 12.0 | 0.00 | 0.04 | 0.02 | 44 | 1015.0 |